Back to catalog

STARLINK-36562

AliveCommunicationsSSO
NORAD 67570·PAYLOAD·🇺🇸 United States

Launched Jan 25, 2026 from Vandenberg Space Force Base

Loading…

Next Passes (next 24 hours)

TLE

FreshSource: CelesTrak SupGP

Epoch: Sep 14, 2026, 21:44 UTC

1 67570C 26016K   26257.90604167 -.00012034  00000+0 -37365-3 0  2570
2 67570  97.2855 316.6785 0000841  93.4161 318.3799 15.33440182    18

Track STARLINK-36562 in real time with AllMySat

Download on the App Store